COSMOS 1275 DEB, 12749

Orbit data source: Space-Track

COSMOS 1275 DEB, 12749 is space debris in LEO originally from a launch on Thu, 04 Jun 1981 UTC launched from the Plesetsk Missile And Space Complex (PKMTR). Debris objects in space refer to the collection of defunct objects orbiting the Earth. Examples of debris include non-operational satellites, rocket bodies, and fragments generated from explosions, collisions, or faulty payload assembly.

Loading next visibility...
Identifier
12749, 1981-053CS
Orbit
LEO
Country
Flag of CISCIS
Related business
Manufacturer
Unknown
Mission
Spacecraft
Bus & Motor
Unknown
Mass
Unknown
Launch date (UTC)
1981-06-04 (45 years ago)
Launch vehicle
Unknown
Launch site
Plesetsk Missile And Space Complex (PKMTR)
Object type
Payload
Rocket body
Debris
Shape & HBR
Unknown shape, 0.2 m
Radar Cross Section
Small (<0.1 m²)

Expand to show TLE details & history
Last TLE update: 14 hours ago

TLE from 14 hours ago
0 COSMOS 1275 DEB
1 12749U 81053CS  26034.36617355  .00000524  00000-0  51508-3 0  9994
2 12749  82.8122 176.4471 0063386 192.7900 196.3460 13.76240830227624
Epoch: 2026-02-03T08:47Z
TLE epoch observation values (Epoch: 2026-02-03T08:47:17.394Z)
Latitude
28.72849°
Longitude
-84.98019°
Altitude
1,025.567 km
Speed
7.319 km/s
True Right ascension
12h 01m 33s
True Declination
28° 35' 20"
Sunlit
Object was in full shadow at epoch
Visualization orbit readout
Latitude
Unknown
Longitude
Unknown
Altitude
Unknown
Speed
Unknown
Apparent Right ascension
Unknown
Apparent Declination
Unknown
Sunlit
N/A
Visualization observer readout
Local Sidereal Time
00:13:21
Azimuth
Unknown
Elevation
Unknown
Doppler factor
Unknown
Orbital elements
Apogee altitude
1,021.007 km
Perigee altitude
927.798 km
Semi-major axis
7,352.539 km
Eccentricity
0.00634
Inclination
82.8122°
RAAN
176.4471°
Arg. of periapsis
192.79°
True anomaly
196.14312°
Mean anomaly
196.346°
Eccentric anomaly
196.24441°
Mean motion
3.4426 °/min
Orbital period
104.57 mins
BSTAR
0.00051508
Loading maneuver chart data...
Computing Atmospheric mass density...
Loading historical data...
Loading historical data...
Loading historical data...
Loading historical data...
Loading historical data...
Loading historical data...
Loading historical data...

Documentation

Showing up to 5 results
|